Wetbulb
47.04 46.91 46.83 46.53 46.59 46.95 47.19 47.40 47.70 47.80 47.60 47.81 48.29 48.43 48.68 50.05 50.53 50.43 48.88 51.06 44.92 38.97 40.38 42.25 41.55 38.09 37.71 37.95 34.36 38.81 38.91 39.46 37.79 33.67 34.12 34.14 32.97 36.15 35.40 35.20 35.71 35.15 32.93 32.61 33.45 35.27 35.07 48.31 48.93 45.26 47.60 50.89 51.16 52.20
47.61 47.68 47.59 47.46 47.25 47.08 46.95 47.14 47.21 47.61 47.93 48.01 47.97 48.39 48.46 49.50 50.23 50.51 47.11 51.19 49.28 41.99 41.91 46.11 45.00 44.51 42.52 42.90 39.56 38.76 38.80 38.34 38.48 36.06 38.12 36.20 35.47 36.95 36.00 33.79 40.04 36.05 39.10 37.89 38.83 38.52 45.61 47.73 48.85 50.59 50.92 50.68 51.53 52.33
48.40 48.11 48.04 47.95 47.92 47.50 47.13 47.17 46.91 47.36 47.80 48.13 48.24 48.35 48.49 48.50 49.42 49.81 48.82 48.44 46.83 41.48 42.49 45.61 43.03 45.45 47.30 45.48 45.87 38.16 40.01 42.01 39.96 43.94 38.90 36.88 33.85 36.84 34.53 35.01 37.19 41.05 44.08 40.09 42.64 44.98 46.17 44.88 48.45 50.05 50.90 51.28 52.91 53.88
48.50 48.37 48.35 48.26 47.99 47.87 47.58 47.44 47.44 47.25 47.47 48.02 48.52 48.82 48.56 48.14 48.52 49.39 48.00 49.45 47.29 42.51 36.30 43.46 49.55 45.67 49.23 48.00 45.31 44.17 42.66 43.16 44.89 42.89 39.78 36.85 35.28 41.16 36.63 35.78 36.10 37.94 39.57 40.22 42.65 45.19 47.42 45.93 46.56 48.57 49.65 51.59 52.52 54.16
48.42 48.43 48.36 47.87 47.92 48.07 47.98 47.66 47.71 47.58 47.61 48.16 48.46 49.10 48.70 48.20 48.43 49.54 48.57 49.30 49.60 42.84 39.05 41.45 46.94 49.23 48.17 47.63 45.56 43.81 42.54 40.76 41.62 39.62 39.29 37.22 41.03 40.78 43.09 39.99 38.31 42.49 40.91 38.59 38.07 43.65 44.23 45.17 46.81 48.80 48.79 48.71 51.19 52.86
48.41 48.51 48.47 48.40 48.29 47.94 48.00 47.52 47.75 47.92 48.13 47.91 48.29 48.27 48.56 48.86 49.02 48.66 45.96 50.16 51.03 46.49 39.14 35.80 47.87 47.21 48.06 48.85 47.85 44.85 44.18 43.15 43.16 41.30 39.77 42.48 45.02 42.88 37.64 37.84 41.76 43.32 44.39 45.15 43.50 47.79 47.65 48.63 49.13 50.27 48.98 48.67 51.13 52.90
48.26 48.37 48.37 48.41 48.43 48.47 47.80 47.98 47.63 48.24 48.08 48.30 48.19 48.14 48.74 50.18 50.10 48.24 45.95 49.04 48.73 47.02 39.95 37.14 42.37 47.78 48.09 48.55 46.96 44.95 46.36 45.15 43.26 43.13 41.17 42.34 41.81 43.99 38.54 36.48 43.10 44.65 43.90 44.23 46.34 47.40 46.94 48.34 48.06 49.07 48.67 49.79 51.30 54.20
48.05 48.06 48.15 47.95 48.24 48.36 47.73 47.73 47.81 47.95 47.83 47.87 47.78 48.40 49.59 48.90 48.39 48.73 50.82 47.79 48.50 45.69 43.48 36.58 41.25 44.73 48.65 45.54 43.31 49.85 44.02 43.62 42.55 42.60 43.00 39.04 40.69 41.18 37.81 39.83 40.64 41.59 42.43 43.01 46.17 46.69 47.50 48.97 49.53 48.37 50.02 50.45 50.81 52.71
47.76 47.89 48.12 48.15 48.29 48.02 47.85 47.66 47.53 47.87 47.65 47.45 47.01 48.75 49.91 49.50 49.31 47.05 49.20 48.39 49.54 46.12 38.35 37.91 36.22 34.37 48.56 47.01 46.17 44.63 47.86 40.09 46.88 39.93 38.61 39.29 37.16 36.01 37.00 38.71 39.20 40.45 40.36 40.75 42.87 44.50 46.94 47.48 48.29 48.25 49.35 49.80 50.33 52.15
47.44 47.72 47.86 47.99 48.33 48.20 47.78 47.71 47.35 47.55 47.48 47.01 48.15 48.22 46.55 48.39 47.80 48.57 46.93 43.16 42.53 43.95 43.81 38.87 44.28 38.22 43.83 44.56 43.78 42.46 45.65 41.08 38.03 42.23 43.13 38.10 38.14 41.97 43.83 44.99 44.22 44.14 44.55 44.06 42.33 42.23 44.68 47.11 48.13 49.04 49.48 50.21 50.16 51.04
46.83 47.45 47.52 47.75 48.05 48.27 47.96 47.82 47.21 47.04 47.62 47.60 44.45 43.69 46.09 47.94 46.89 45.46 40.81 40.01 40.63 38.46 41.70 42.14 44.35 41.54 45.55 39.05 38.29 41.47 38.49 42.53 36.76 39.56 37.22 38.37 36.78 42.10 45.85 45.24 45.33 45.56 45.49 45.67 46.26 46.47 46.66 48.05 47.04 49.08 49.76 50.31 50.74 51.85
44.89 46.25 46.99 46.97 47.27 47.77 47.71 47.71 46.97 47.53 46.81 45.06 43.51 43.61 43.12 42.75 44.52 40.71 40.65 42.15 40.74 39.91 44.39 43.37 44.32 44.77 44.52 44.28 39.54 40.60 35.83 40.18 35.03 43.07 37.99 35.58 41.50 45.07 44.57 44.78 45.66 45.97 45.84 45.84 46.41 46.90 47.96 49.52 48.45 49.15 50.50 50.49 51.29 52.58
43.95 45.25 46.21 47.13 47.31 47.29 47.61 46.88 46.23 46.32 46.42 47.00 41.40 38.95 40.90 43.62 34.94 36.25 33.58 38.42 39.49 43.50 44.98 45.29 42.02 45.96 44.02 43.92 41.49 39.64 34.56 35.64 42.16 38.60 36.87 40.76 44.61 45.89 45.72 46.28 46.68 46.93 46.49 46.40 46.75 47.79 47.84 48.50 49.21 50.70 50.64 52.04 52.79 53.66
44.41 45.51 46.32 46.81 47.36 47.27 45.51 46.30 45.90 46.23 45.32 41.94 38.20 34.83 39.01 37.52 39.92 41.79 41.53 43.32 45.84 45.34 45.33 45.18 44.68 43.43 44.32 40.17 39.65 33.43 39.41 39.10 34.61 33.08 34.92 41.95 44.94 45.99 47.13 47.73 46.79 45.97 46.03 46.19 47.34 47.38 46.95 48.10 49.81 51.64 52.74 53.84 53.85 53.30
43.42 44.54 45.90 46.49 45.91 45.10 45.93 46.11 46.04 46.63 44.48 39.50 40.43 34.63 38.81 43.83 45.60 46.10 46.83 46.30 46.88 48.67 46.64 44.83 44.95 44.11 41.89 38.87 39.22 36.11 33.67 31.71 34.25 36.26 41.98 44.99 46.44 46.71 46.97 47.72 47.66 47.06 46.59 46.19 47.38 48.28 48.62 49.85 51.00 52.16 53.58 54.58 54.58 54.20
42.65 44.07 46.14 44.73 44.63 45.23 46.05 46.14 47.26 46.42 42.83 39.84 41.06 40.57 44.28 42.65 42.58 44.10 45.01 44.58 48.42 47.72 48.09 46.24 42.22 39.54 38.48 39.57 34.31 32.12 32.40 32.62 34.97 39.87 45.79 47.25 46.97 47.07 47.46 48.16 48.46 48.99 48.40 47.92 47.42 47.81 49.49 49.27 48.77 50.38 52.98 53.29 53.53 54.32
41.82 42.76 45.45 45.86 46.00 46.00 45.97 43.98 45.10 40.44 40.08 40.07 40.42 45.18 43.94 44.09 43.01 43.68 45.42 45.29 49.08 45.60 41.27 43.74 36.07 35.64 41.56 37.18 33.67 37.89 33.88 36.60 43.31 46.39 48.53 48.11 47.33 47.63 48.28 48.34 48.46 48.85 49.68 49.02 48.92 48.29 48.23 49.25 48.52 48.28 48.35 49.27 50.96 53.46
38.98 42.60 44.66 44.99 45.61 44.83 44.43 43.56 42.63 40.73 37.63 42.09 41.16 44.56 45.94 46.16 44.86 45.30 46.60 47.65 46.33 44.69 44.22 40.23 44.91 38.05 35.38 33.91 38.44 40.72 44.34 46.13 47.45 47.03 47.92 48.60 49.47 48.66 48.29 48.17 48.46 49.12 49.86 50.00 50.00 48.65 48.49 48.46 46.97 46.77 48.24 48.72 48.45 48.93
40.86 42.45 43.50 44.97 45.07 41.76 39.46 41.10 42.69 37.33 39.83 43.71 45.49 46.61 46.15 45.64 47.09 47.76 47.35 47.85 48.38 48.37 46.99 43.81 39.38 38.39 39.90 42.82 42.13 43.75 45.93 46.16 45.41 47.91 48.81 48.94 50.40 49.28 48.44 48.59 48.18 48.69 49.74 49.95 50.04 49.57 49.67 50.14 49.87 48.79 48.04 49.53 48.48 47.83
42.02 43.44 44.44 44.10 43.24 38.64 37.70 40.28 44.62 39.62 37.84 43.69 45.22 44.54 45.22 44.95 46.49 46.74 46.84 46.64 45.84 44.72 41.62 39.92 40.36 42.87 43.71 45.52 46.61 46.67 47.09 48.93 47.59 45.64 46.51 48.44 50.55 49.57 49.25 48.57 48.45 48.67 48.67 49.20 50.07 45.26 49.69 50.01 50.42 50.50 49.67 47.43 46.46 46.88
41.22 43.92 43.08 43.41 40.28 38.84 37.34 40.69 39.83 40.31 41.29 40.68 43.84 44.70 43.95 46.13 43.94 43.96 44.33 46.72 43.51 41.88 40.37 43.35 43.98 45.87 47.88 48.28 48.85 49.33 48.47 48.66 47.42 47.28 46.70 47.30 49.19 50.41 49.81 49.52 49.39 48.99 48.08 48.26 47.98 48.22 47.10 49.13 50.61 50.07 49.89 49.16 47.67 45.91
40.50 42.31 40.98 41.62 37.83 38.01 36.90 41.81 40.56 41.30 38.92 40.65 41.47 42.97 41.00 40.35 41.09 42.59 45.44 42.20 41.71 43.93 45.49 45.42 46.02 46.68 46.30 46.82 48.64 49.95 49.52 49.99 49.78 48.19 40.24 43.42 47.56 49.18 49.12 48.77 47.77 47.09 47.39 48.08 48.24 48.29 48.98 50.01 50.20 50.15 48.05 47.45 46.60 46.89
40.46 40.31 38.01 38.31 34.94 34.65 33.97 42.45 37.30 39.04 35.91 38.32 40.78 38.17 39.51 40.37 42.94 44.44 40.25 42.68 44.59 47.47 47.16 46.74 47.06 47.91 47.27 48.14 49.39 49.72 50.53 50.05 48.69 48.40 48.48 48.99 50.48 50.58 49.89 49.44 49.29 47.07 46.37 47.45 49.39 49.21 49.16 42.01 47.17 47.69 48.68 48.36 48.21 46.82
41.56 36.88 34.21 31.78 33.17 31.21 36.91 35.77 37.61 37.59 39.17 37.88 37.28 35.94 38.65 41.11 43.71 40.32 36.95 40.84 44.83 47.53 46.35 46.16 46.71 46.06 47.31 47.53 46.62 48.00 49.74 50.53 49.15 49.26 49.32 48.19 47.54 47.89 48.47 48.31 49.55 48.92 48.25 48.62 49.29 49.23 49.42 49.23 42.88 46.95 47.26 45.04 45.65 44.75
32.95 31.58 32.84 28.61 33.97 32.45 31.81 32.32 33.98 34.96 32.81 36.34 35.27 36.71 38.58 42.58 37.28 36.68 36.25 42.33 43.85 44.33 44.76 45.35 46.23 46.33 45.52 46.67 47.64 48.75 51.10 50.14 48.62 47.50 48.52 48.94 48.07 46.58 47.43 48.47 48.62 48.81 49.49 48.04 47.60 47.99 48.35 48.51 45.81 45.36 45.06 45.18 44.31 44.03
26.12 31.73 29.84 29.72 30.80 30.87 33.26 30.83 31.99 33.62 35.11 34.29 35.02 39.21 42.06 38.01 34.07 33.50 38.01 42.71 43.51 43.82 44.01 44.18 44.16 44.68 45.13 46.69 46.49 47.60 49.10 50.71 49.86 47.58 47.63 47.34 46.88 46.63 45.41 45.08 45.97 46.10 49.61 49.37 48.09 47.04 46.39 46.12 44.73 44.15 43.91 43.14 38.18 42.44
25.86 28.09 33.01 37.75 35.67 34.35 32.89 35.80 37.36 35.04 32.66 32.79 35.73 36.16 35.40 31.17 32.28 38.17 41.71 44.33 44.12 44.93 45.98 45.92 45.57 45.20 45.75 46.25 48.36 49.80 50.79 50.74 49.44 48.43 49.00 48.34 48.70 48.95 47.48 45.40 44.17 47.40 49.60 48.63 48.00 46.97 45.84 45.56 44.81 43.72 42.93 41.70 40.72 40.32
29.27 31.40 28.72 32.63 32.98 34.17 30.36 32.33 32.20 32.03 34.24 38.17 37.03 33.11 32.41 33.41 35.82 42.05 43.62 45.70 45.66 45.60 45.52 46.22 46.96 46.67 46.95 48.64 49.24 50.19 49.83 49.74 49.14 48.87 48.27 47.97 48.27 48.58 48.25 48.40 48.45 33.31 47.11 46.31 46.92 47.36 46.57 45.58 44.33 43.09 41.79 40.43 39.84 39.59
28.68 33.11 33.43 29.46 31.20 32.21 32.13 31.44 32.46 35.94 39.16 37.57 33.97 33.82 36.07 40.94 43.52 43.81 44.32 45.07 45.43 44.80 43.18 43.46 44.80 46.90 48.17 49.18 50.24 49.68 49.17 47.90 45.70 43.74 43.05 43.02 43.51 44.67 47.44 47.84 47.67 47.72 46.85 43.60 30.90 36.89 42.10 42.93 43.36 42.96 41.69 41.45 41.27 40.24
29.81 34.01 30.07 29.99 28.14 27.90 32.49 35.48 35.00 38.21 38.91 38.70 39.15 38.73 39.49 40.94 43.94 45.71 43.95 43.56 42.92 42.42 43.27 43.69 44.39 44.37 45.06 45.11 44.33 45.32 48.76 49.59 48.25 45.84 43.25 43.19 44.57 45.68 45.97 46.06 46.67 47.23 47.29 46.30 44.96 42.25 31.93 40.19 37.69 42.23 40.55 40.04 38.89 38.34
34.06 32.79 29.27 30.14 29.42 33.26 35.33 36.84 37.88 38.04 37.49 36.71 37.90 36.32 36.83 38.84 40.54 40.41 38.06 39.62 42.37 42.67 42.72 42.60 44.33 44.55 44.27 44.81 44.10 42.69 40.95 44.02 44.11 44.55 45.51 45.97 45.46 45.00 45.32 45.94 46.89 47.15 46.42 46.28 45.07 43.79 42.03 41.20 40.38 38.85 37.81 36.70 35.28 35.55
31.85 29.63 29.30 27.53 29.93 35.56 37.23 35.38 34.58 34.86 34.22 34.26 34.07 35.75 35.78 35.31 35.68 35.14 34.94 35.55 35.56 36.36 35.86 38.91 40.67 38.95 41.64 42.32 42.32 41.92 37.28 41.61 41.42 41.49 41.69 42.37 42.97 43.59 44.74 45.68 46.19 45.63 44.61 43.20 42.28 41.40 40.39 38.99 38.54 37.21 35.89 34.57 34.77 34.29
30.10 31.35 31.66 30.81 30.49 30.76 34.02 33.40 32.55 32.11 34.11 34.41 34.94 35.66 35.88 35.49 29.54 31.44 35.70 35.33 34.23 35.22 34.38 34.24 35.07 35.87 36.07 36.04 36.74 37.25 36.31 37.07 32.11 30.15 31.14 31.09 31.66 36.37 42.45 43.12 42.71 42.09 41.53 41.05 40.29 39.64 37.92 36.85 36.24 35.31 34.54 33.64 32.69 31.87
MSLP
1027.55 1027.08 1026.67 1026.21 1025.65 1025.00 1024.23 1023.56 1022.87 1022.12 1021.48 1020.83 1020.35 1019.71 1019.19 1018.68 1018.33 1018.16 1017.16 1017.61 1017.93 1017.06 1015.13 1014.69 1014.63 1014.84 1014.98 1014.74 1013.66 1012.50 1011.78 1011.65 1011.00 1010.65 1009.17 1008.11 1006.96 1006.07 1005.48 1005.31 1004.46 1004.11 1003.76 1003.15 1002.58 1000.40 999.72 999.97 998.72 998.57 999.89 999.64 999.25 998.70
1027.06 1026.63 1026.20 1025.67 1025.09 1024.48 1023.87 1023.16 1022.46 1021.74 1021.07 1020.40 1019.80 1019.30 1018.68 1018.21 1017.81 1017.67 1016.92 1016.76 1017.54 1017.33 1014.89 1014.19 1013.93 1014.28 1014.53 1014.07 1013.92 1013.43 1012.84 1012.49 1012.11 1011.31 1010.24 1009.51 1008.28 1007.51 1006.78 1005.55 1005.75 1004.96 1004.06 1003.08 1002.09 1002.16 1001.74 1001.40 1000.81 1000.87 1000.74 1000.10 999.63 999.04
1026.46 1026.00 1025.58 1025.09 1024.55 1023.99 1023.28 1022.65 1021.97 1021.29 1020.56 1019.91 1019.22 1018.69 1018.07 1017.59 1017.28 1017.14 1016.30 1016.45 1017.07 1016.37 1014.20 1012.55 1012.26 1013.23 1013.56 1013.38 1013.46 1013.68 1013.15 1012.52 1012.17 1011.68 1010.97 1010.17 1009.16 1008.44 1007.33 1006.98 1006.32 1004.99 1004.63 1003.93 1002.63 1001.79 1001.66 1002.26 1002.04 1001.74 1001.33 1000.60 999.97 999.27
1025.86 1025.47 1024.96 1024.52 1024.02 1023.40 1022.84 1022.09 1021.37 1020.66 1019.97 1019.22 1018.55 1017.90 1017.35 1016.84 1016.57 1016.50 1016.06 1015.62 1016.13 1016.03 1014.94 1011.82 1011.63 1011.73 1011.81 1012.51 1012.87 1013.06 1012.92 1012.80 1012.28 1011.69 1010.73 1009.93 1008.84 1008.19 1007.79 1007.64 1007.18 1006.85 1006.10 1004.66 1002.94 1002.28 1002.17 1002.61 1002.67 1002.39 1001.93 1001.16 1000.26 999.44
1025.26 1024.83 1024.45 1023.95 1023.44 1022.91 1022.30 1021.65 1020.86 1020.07 1019.28 1018.55 1017.85 1017.05 1016.54 1016.08 1015.88 1015.76 1015.71 1015.39 1015.34 1015.94 1014.70 1012.52 1011.74 1010.79 1011.33 1011.82 1012.12 1012.59 1012.79 1012.73 1011.96 1011.06 1009.99 1008.67 1007.75 1007.37 1006.78 1007.21 1006.81 1006.48 1005.83 1005.22 1004.21 1003.64 1003.28 1002.83 1002.85 1002.58 1002.04 1001.43 1000.51 999.53
1024.59 1024.11 1023.68 1023.28 1022.82 1022.26 1021.75 1021.12 1020.31 1019.42 1018.51 1017.77 1017.14 1016.21 1015.53 1015.03 1015.19 1015.14 1014.49 1014.74 1014.80 1015.75 1015.41 1013.54 1011.00 1010.35 1010.34 1010.48 1010.73 1011.67 1011.96 1011.92 1011.42 1010.56 1009.64 1008.51 1007.54 1007.53 1006.77 1005.94 1006.39 1006.27 1006.12 1005.77 1004.81 1004.00 1003.44 1002.97 1002.66 1002.47 1002.12 1001.66 1000.71 999.73
1023.91 1023.48 1023.10 1022.67 1022.18 1021.60 1021.07 1020.49 1019.74 1018.84 1017.87 1017.05 1016.34 1015.39 1014.54 1014.32 1014.40 1013.88 1014.24 1014.24 1014.93 1015.66 1015.21 1013.39 1010.58 1009.78 1010.16 1010.01 1010.53 1011.13 1011.17 1010.83 1010.59 1009.54 1009.13 1008.32 1008.01 1007.79 1006.94 1006.20 1006.13 1006.12 1006.32 1005.91 1005.11 1004.16 1002.96 1002.29 1002.17 1002.40 1002.28 1001.27 1000.41 999.33
1023.27 1022.88 1022.44 1022.04 1021.60 1021.04 1020.48 1019.85 1019.18 1018.34 1017.27 1016.40 1015.76 1014.93 1014.32 1014.35 1014.38 1013.90 1014.19 1014.83 1014.91 1014.74 1014.64 1013.36 1010.89 1009.32 1009.90 1009.31 1009.38 1009.58 1009.89 1010.20 1010.07 1009.46 1009.20 1009.42 1008.94 1008.18 1007.53 1008.08 1007.87 1007.39 1006.77 1006.18 1004.91 1004.41 1003.73 1002.93 1002.31 1002.01 1001.61 1000.78 999.95 998.98
1022.63 1022.18 1021.80 1021.42 1021.01 1020.51 1019.96 1019.35 1018.62 1017.80 1016.67 1015.65 1015.19 1015.05 1014.61 1014.06 1013.19 1014.34 1014.41 1014.86 1014.62 1014.50 1013.79 1013.15 1011.63 1010.22 1009.39 1009.45 1009.42 1009.03 1009.11 1009.07 1009.08 1009.30 1009.61 1009.80 1009.29 1008.79 1008.57 1008.17 1007.59 1007.29 1006.96 1006.31 1005.58 1004.67 1003.63 1002.56 1001.61 1001.23 1000.86 1000.24 999.72 999.03
1021.98 1021.56 1021.16 1020.76 1020.39 1019.98 1019.47 1018.96 1018.29 1017.39 1016.10 1014.92 1014.51 1014.15 1013.04 1013.75 1014.50 1014.66 1014.66 1014.49 1014.25 1013.69 1013.37 1012.32 1011.20 1010.67 1010.58 1009.49 1009.13 1009.13 1008.73 1008.48 1008.36 1008.65 1009.00 1008.90 1008.46 1007.87 1007.35 1007.10 1006.98 1006.58 1006.18 1005.69 1005.11 1004.12 1003.18 1002.14 1001.34 1000.75 1000.40 1000.02 999.69 999.28
1021.50 1021.10 1020.61 1020.24 1019.83 1019.42 1019.00 1018.59 1018.03 1017.16 1015.56 1014.93 1014.48 1014.05 1014.52 1014.39 1014.19 1013.35 1012.84 1012.86 1012.47 1012.12 1011.80 1011.13 1010.37 1010.24 1010.75 1010.70 1010.03 1010.04 1009.28 1008.54 1007.93 1008.06 1008.37 1007.60 1006.98 1006.72 1006.47 1006.29 1006.45 1006.02 1005.50 1005.02 1004.48 1003.74 1003.06 1002.27 1001.68 1000.82 1000.07 999.82 999.61 999.13
1021.07 1020.62 1020.15 1019.74 1019.32 1018.88 1018.54 1018.17 1017.79 1016.88 1016.49 1016.57 1016.63 1016.10 1015.29 1014.13 1012.43 1011.70 1010.64 1010.48 1010.20 1009.08 1009.33 1009.27 1009.28 1010.05 1010.54 1011.03 1010.62 1010.06 1009.59 1008.83 1007.78 1008.15 1007.74 1006.51 1005.97 1005.80 1005.68 1005.49 1005.34 1005.06 1004.66 1003.97 1003.46 1002.82 1002.11 1001.54 1001.12 1000.60 999.94 999.69 999.44 998.97
1020.63 1020.09 1019.58 1019.21 1018.75 1018.39 1018.05 1017.82 1017.57 1017.13 1016.21 1015.47 1015.82 1015.18 1014.00 1012.06 1010.86 1009.44 1008.66 1007.99 1007.88 1007.69 1007.79 1008.16 1008.61 1009.29 1010.42 1010.65 1010.31 1010.07 1009.77 1009.08 1008.78 1007.84 1006.74 1006.11 1005.84 1005.56 1005.38 1005.08 1004.62 1004.23 1003.96 1003.28 1002.57 1001.69 1001.34 1000.85 1000.64 1000.11 999.76 999.44 999.15 998.66
1020.11 1019.60 1019.01 1018.53 1018.09 1018.02 1017.72 1017.53 1017.24 1016.57 1015.74 1014.66 1014.26 1013.23 1011.71 1009.74 1008.39 1007.27 1006.87 1006.58 1006.76 1007.02 1007.04 1007.31 1007.76 1008.76 1009.26 1009.67 1009.82 1009.81 1009.45 1009.50 1008.71 1007.79 1006.82 1006.21 1005.96 1005.53 1005.25 1004.90 1004.38 1004.03 1003.59 1002.98 1002.00 1001.38 1001.17 1000.67 1000.12 999.86 999.57 999.21 998.72 998.23
1019.73 1019.07 1018.29 1017.62 1017.43 1017.58 1017.36 1016.92 1016.62 1016.04 1015.05 1013.96 1013.14 1011.31 1009.09 1007.80 1007.08 1006.58 1006.37 1006.37 1006.35 1006.61 1006.84 1006.98 1007.42 1008.10 1008.48 1008.89 1009.39 1009.69 1009.36 1009.10 1008.63 1007.75 1006.80 1006.33 1006.18 1005.69 1005.13 1004.90 1004.41 1004.11 1003.71 1003.18 1002.55 1001.91 1001.52 1001.11 1000.45 999.99 999.62 999.23 998.82 998.36
1019.32 1018.56 1017.42 1017.66 1017.52 1017.21 1016.64 1016.37 1015.48 1015.04 1014.37 1013.25 1011.44 1009.27 1007.75 1007.10 1006.09 1005.97 1005.88 1005.53 1005.60 1006.06 1006.61 1006.70 1006.60 1007.07 1007.62 1008.37 1008.93 1009.02 1008.95 1008.38 1007.89 1007.37 1006.48 1006.17 1006.02 1005.79 1005.45 1004.92 1004.59 1004.16 1003.72 1003.35 1003.26 1002.68 1002.18 1001.79 1001.46 1000.85 1000.14 1000.10 999.72 998.90
1018.88 1017.89 1017.52 1017.46 1017.27 1016.75 1016.01 1015.82 1014.74 1014.13 1012.81 1011.20 1009.21 1007.84 1007.05 1006.02 1005.58 1005.11 1005.06 1004.95 1005.35 1005.61 1005.35 1005.55 1005.91 1006.16 1007.27 1007.28 1007.72 1008.21 1008.01 1007.31 1006.60 1006.08 1005.88 1005.88 1005.90 1005.71 1005.41 1004.98 1004.52 1004.22 1003.83 1003.51 1003.15 1003.07 1002.77 1002.41 1002.02 1001.57 1000.98 1000.75 1000.23 999.49
1018.74 1018.01 1017.52 1017.24 1017.01 1016.23 1015.20 1014.79 1013.37 1012.29 1010.87 1009.16 1007.85 1006.22 1006.04 1005.72 1005.19 1004.86 1004.88 1005.08 1005.35 1004.91 1004.87 1005.03 1005.12 1005.58 1005.71 1005.86 1005.79 1006.12 1006.25 1005.95 1005.79 1005.64 1005.41 1005.55 1005.60 1005.56 1005.24 1004.95 1004.64 1004.16 1003.83 1003.66 1003.44 1003.26 1002.61 1002.50 1002.44 1002.33 1001.79 1001.24 1000.74 1000.45
1018.39 1017.90 1017.23 1016.86 1016.84 1016.46 1015.09 1013.40 1012.75 1010.91 1008.99 1007.83 1006.73 1006.05 1005.63 1005.19 1004.82 1004.78 1004.56 1004.52 1004.93 1004.65 1004.66 1004.71 1004.31 1003.74 1003.78 1003.99 1003.92 1003.96 1004.24 1004.76 1004.67 1004.70 1005.08 1005.11 1005.15 1005.22 1005.25 1004.96 1004.57 1004.37 1004.13 1003.75 1003.40 1003.13 1002.76 1002.48 1002.57 1002.53 1002.53 1002.20 1001.72 1001.51
1017.82 1017.14 1016.42 1016.43 1016.44 1015.95 1014.53 1012.55 1011.89 1010.47 1008.60 1006.95 1006.29 1005.34 1004.85 1004.46 1004.08 1004.14 1004.04 1004.17 1004.62 1004.59 1003.97 1003.40 1002.91 1002.67 1002.49 1002.50 1002.68 1003.01 1003.23 1003.64 1004.01 1004.03 1004.02 1004.58 1004.68 1004.83 1004.72 1004.74 1004.47 1004.20 1003.72 1003.62 1003.43 1003.48 1002.94 1002.74 1002.82 1002.79 1002.86 1002.98 1002.85 1002.50
1017.09 1016.07 1016.11 1015.88 1015.96 1015.59 1014.32 1011.85 1010.43 1009.27 1007.99 1006.93 1005.67 1005.12 1004.18 1003.99 1003.99 1003.57 1003.44 1003.56 1003.70 1003.04 1002.39 1002.07 1001.86 1001.69 1001.80 1001.83 1001.91 1002.34 1002.65 1003.08 1003.31 1003.62 1003.72 1003.95 1004.27 1004.41 1004.39 1004.36 1004.27 1003.80 1003.57 1003.35 1003.39 1003.43 1003.38 1003.45 1003.74 1003.60 1003.68 1003.77 1003.72 1003.50
1016.56 1016.36 1016.11 1015.58 1015.24 1014.55 1013.33 1011.30 1010.02 1008.98 1008.25 1006.39 1005.63 1004.82 1003.96 1003.46 1003.10 1002.69 1002.74 1002.92 1002.24 1001.52 1001.16 1001.00 1000.91 1000.92 1001.06 1001.13 1001.71 1002.25 1002.11 1002.66 1003.15 1003.48 1004.23 1004.40 1004.00 1003.90 1004.05 1004.33 1004.27 1003.90 1003.55 1003.42 1003.57 1003.48 1003.57 1003.58 1004.04 1004.09 1004.24 1004.14 1003.91 1003.66
1016.39 1016.22 1015.80 1015.09 1014.43 1013.26 1011.27 1010.14 1009.41 1008.13 1007.05 1005.43 1005.05 1004.12 1003.32 1003.09 1002.72 1003.13 1002.49 1001.81 1000.95 1000.59 1000.58 1000.55 1000.50 1000.61 1000.58 1000.57 1000.95 1001.53 1001.98 1002.29 1002.45 1002.87 1003.35 1003.75 1003.95 1004.16 1004.23 1004.23 1004.36 1004.27 1004.00 1003.84 1003.83 1003.80 1003.95 1004.46 1004.49 1004.57 1004.47 1004.33 1003.89 1003.95
1015.69 1015.33 1014.72 1013.86 1012.88 1011.31 1010.20 1009.06 1008.55 1007.42 1006.05 1005.29 1004.41 1003.48 1002.70 1002.54 1002.85 1002.58 1001.72 1001.14 1000.37 1000.31 1000.58 1000.62 1000.49 1000.44 1000.50 1000.76 1000.70 1000.85 1001.44 1001.77 1001.90 1002.56 1003.09 1003.50 1003.50 1003.82 1004.23 1004.27 1004.45 1004.52 1004.70 1004.29 1004.07 1004.18 1004.25 1004.29 1005.28 1004.92 1004.79 1005.01 1004.86 1004.79
1014.85 1014.16 1013.76 1012.39 1011.46 1010.57 1009.27 1007.93 1007.09 1006.45 1005.28 1004.48 1004.04 1003.18 1002.60 1002.71 1002.37 1001.70 1001.34 1000.59 1000.88 1000.98 1001.20 1000.99 1000.60 1000.27 999.88 999.65 999.92 1000.21 1001.03 1001.33 1001.51 1002.15 1002.87 1003.21 1003.44 1003.85 1004.03 1004.30 1004.57 1004.89 1004.83 1004.39 1004.34 1004.48 1004.62 1004.87 1005.54 1005.56 1005.61 1005.44 1005.44 1005.36
1013.71 1012.01 1011.57 1010.44 1009.68 1009.11 1007.53 1006.40 1005.64 1004.79 1004.27 1003.79 1003.39 1002.87 1002.72 1002.53 1002.21 1001.35 1001.09 1001.49 1001.62 1001.78 1001.86 1001.68 1001.29 1000.78 1000.14 999.95 999.77 1000.21 1000.98 1001.13 1001.35 1001.79 1002.65 1002.97 1003.38 1003.64 1003.91 1004.11 1004.28 1004.71 1005.16 1004.91 1004.82 1004.80 1005.05 1005.35 1005.71 1005.81 1005.88 1005.92 1006.16 1006.10
1011.70 1010.25 1009.62 1009.00 1008.41 1008.02 1007.29 1006.24 1005.42 1004.92 1004.18 1003.37 1002.76 1002.77 1002.89 1002.46 1001.46 1001.13 1001.94 1002.17 1002.11 1002.28 1002.15 1001.94 1001.73 1001.31 1000.74 1000.05 1000.01 1000.05 1000.84 1001.23 1001.42 1001.71 1002.69 1003.30 1003.84 1004.18 1004.21 1004.37 1004.83 1005.45 1005.55 1005.62 1005.53 1005.49 1005.50 1005.66 1006.00 1006.28 1006.38 1006.75 1006.95 1006.96
1010.12 1008.61 1007.73 1007.61 1007.34 1007.38 1006.86 1005.97 1005.15 1004.09 1003.38 1003.25 1003.54 1002.79 1002.35 1001.60 1001.55 1001.80 1002.02 1002.43 1002.58 1002.45 1001.99 1001.74 1001.76 1001.76 1001.20 1000.44 1000.28 1000.53 1000.98 1001.65 1002.52 1002.90 1003.54 1004.14 1004.65 1004.81 1004.91 1005.12 1005.70 1006.49 1006.06 1006.47 1006.23 1006.13 1006.28 1006.35 1006.47 1006.76 1006.96 1007.16 1007.42 1007.62
1008.46 1007.76 1007.33 1006.55 1006.41 1006.03 1005.65 1005.21 1004.43 1003.60 1003.12 1002.91 1002.83 1002.71 1001.97 1001.93 1002.18 1002.27 1002.13 1002.40 1002.55 1002.27 1002.05 1001.85 1001.71 1001.92 1001.80 1001.46 1001.00 1001.03 1001.49 1001.88 1002.17 1002.60 1002.89 1003.44 1004.30 1004.73 1004.99 1005.19 1005.73 1005.88 1006.33 1007.08 1007.87 1007.44 1007.19 1007.26 1007.18 1007.14 1007.27 1007.47 1007.76 1008.11
1006.78 1006.86 1006.46 1006.10 1005.68 1005.02 1004.66 1004.39 1003.86 1003.42 1003.21 1003.03 1002.78 1002.61 1002.32 1002.31 1002.66 1003.30 1003.38 1003.36 1003.10 1002.82 1002.80 1002.61 1002.36 1002.11 1001.70 1001.71 1002.13 1002.48 1002.33 1002.25 1002.13 1002.18 1002.44 1002.89 1003.43 1004.45 1004.82 1005.11 1005.37 1005.56 1006.02 1006.27 1006.98 1007.64 1008.17 1007.60 1007.86 1007.28 1007.58 1007.80 1008.22 1008.49
1005.23 1005.24 1005.61 1005.41 1004.77 1004.13 1003.73 1003.71 1003.72 1003.44 1003.38 1003.55 1003.47 1003.16 1002.73 1002.95 1004.03 1005.20 1005.71 1005.36 1004.31 1003.78 1003.42 1002.87 1002.63 1002.73 1002.46 1002.28 1002.41 1003.05 1003.52 1003.97 1004.08 1003.97 1003.75 1003.88 1004.51 1004.95 1005.15 1005.36 1005.54 1005.69 1005.96 1006.35 1006.89 1007.26 1007.55 1007.80 1008.02 1008.12 1008.21 1008.43 1008.83 1008.98
1004.81 1004.63 1004.62 1004.31 1003.81 1003.48 1003.29 1003.08 1002.97 1002.75 1002.99 1003.39 1003.16 1003.18 1003.40 1004.34 1004.88 1006.14 1006.92 1006.54 1005.91 1005.40 1005.09 1004.65 1004.17 1004.17 1003.98 1004.16 1004.10 1004.14 1004.11 1004.71 1005.03 1005.15 1005.17 1005.41 1005.63 1005.98 1006.10 1006.03 1006.11 1006.27 1006.49 1006.81 1007.23 1007.73 1008.10 1008.33 1008.54 1008.71 1008.95 1009.10 1009.27 1009.60
1004.32 1004.16 1004.02 1003.69 1003.42 1002.98 1002.79 1002.92 1002.76 1002.46 1002.20 1002.26 1002.17 1002.32 1003.22 1004.25 1005.91 1007.46 1007.79 1007.70 1007.39 1006.89 1006.64 1006.53 1006.41 1006.21 1006.09 1006.03 1005.81 1005.84 1005.89 1006.34 1007.04 1007.12 1007.02 1007.07 1007.05 1006.84 1006.74 1006.84 1007.04 1007.19 1007.28 1007.65 1008.01 1008.37 1008.64 1008.85 1009.08 1009.28 1009.43 1009.70 1010.05 1010.52
Wind_Speed
17 17 18 20 20 20 21 21 22 22 22 21 20 19 17 14 11 5 5 8 4 5 12 15 13 10 3 5 4 8 8 0 3 3 4 5 5 5 5 3 7 8 7 5 4 6 5 15 4 5 9 7 8 10
17 17 17 18 19 19 21 21 23 23 22 22 21 19 18 14 11 6 5 5 6 5 9 16 16 11 13 18 9 3 5 5 2 3 3 3 3 3 4 1 5 4 1 2 3 4 4 8 8 8 7 8 10 11
17 18 18 18 19 20 19 21 23 24 23 23 23 21 19 16 11 7 6 2 3 4 8 5 0 7 6 3 3 3 2 3 3 6 2 2 4 3 4 3 5 2 6 3 8 4 6 4 8 10 11 11 12 12
17 18 19 19 19 19 21 21 22 24 24 24 23 22 19 16 11 8 6 4 3 3 4 2 6 4 4 9 8 10 8 5 8 6 3 3 4 3 2 2 3 3 6 5 7 4 4 7 9 14 14 13 15 14
18 19 19 20 21 20 20 22 22 24 26 26 26 25 20 16 10 6 5 5 6 2 5 8 17 3 5 6 10 10 8 6 4 3 3 3 3 4 2 2 1 1 5 4 3 10 7 8 10 15 12 16 18 15
17 18 18 18 19 20 20 22 23 24 26 28 28 28 23 12 9 5 5 5 5 4 2 4 6 6 4 4 4 11 5 5 3 3 3 3 5 5 4 2 5 6 7 10 10 15 15 15 15 11 14 17 18 16
17 17 19 20 19 19 20 20 24 24 27 27 27 27 18 6 8 3 5 5 8 5 2 5 4 3 3 1 4 2 5 3 4 3 3 6 5 8 3 4 11 10 11 14 16 17 15 8 12 14 15 17 18 15
18 17 17 18 18 18 19 21 23 25 27 27 25 18 4 10 3 4 4 8 9 3 2 4 5 4 3 3 1 1 3 3 2 4 2 3 6 4 3 13 17 17 16 15 14 15 18 18 17 15 15 14 15 13
18 18 17 18 18 17 18 20 22 24 27 28 20 4 5 6 3 4 2 8 3 3 2 2 3 4 4 1 2 2 1 2 0 1 0 2 2 2 6 13 13 15 11 16 17 16 18 18 17 15 15 13 12 13
17 17 17 17 18 17 19 19 21 24 27 24 5 5 4 4 6 6 5 4 3 3 3 4 2 4 4 4 1 3 1 2 2 3 1 2 1 9 6 11 8 13 14 13 14 14 13 15 14 15 15 13 12 12
18 18 18 19 18 18 18 18 21 21 10 5 5 3 6 3 4 4 3 4 4 4 4 5 5 5 3 3 3 1 3 1 3 4 2 1 4 10 14 14 13 12 14 15 12 13 15 16 14 15 13 11 11 12
18 19 18 18 18 19 18 17 15 9 6 9 9 7 4 4 4 5 4 4 5 2 5 3 1 3 1 1 3 2 3 3 2 2 3 4 6 13 15 16 16 13 14 14 13 13 13 14 10 12 11 10 10 11
19 19 18 17 19 19 18 14 13 13 14 2 2 4 3 3 3 6 5 4 3 4 4 2 3 1 3 4 3 2 2 2 4 3 4 3 10 12 15 15 17 16 16 16 14 10 5 7 7 8 8 8 8 10
20 20 20 18 18 16 8 13 15 10 5 3 3 5 5 5 6 4 5 2 2 3 3 4 2 3 3 3 1 3 0 1 2 1 2 6 11 13 14 15 15 16 16 17 13 9 5 5 6 6 7 8 8 7
21 21 22 17 5 9 16 18 17 5 4 5 4 6 7 7 4 4 4 3 4 3 3 3 2 3 3 3 1 3 3 3 2 2 3 5 8 11 14 14 16 16 14 13 15 13 13 11 10 8 7 7 7 8
21 21 1 4 9 17 20 17 6 3 3 4 7 6 5 5 7 6 8 7 3 3 2 3 2 4 3 2 3 4 2 3 3 3 4 4 6 7 11 14 15 14 13 11 10 13 14 13 11 11 10 10 10 9
18 5 12 14 17 19 20 5 4 6 6 6 7 8 10 8 7 6 4 6 4 5 5 2 4 2 3 3 2 3 4 3 5 3 2 3 4 6 8 11 13 14 14 14 14 10 12 12 12 14 15 14 13 13
9 10 16 20 16 8 3 4 4 5 8 8 7 7 8 7 7 7 5 5 6 6 4 5 1 6 4 4 3 4 6 5 4 4 3 4 2 4 6 9 10 12 14 14 14 11 11 13 13 10 15 14 12 12
14 15 21 19 7 3 4 4 4 6 8 7 8 8 6 7 7 8 7 5 6 5 3 4 7 7 8 5 6 5 3 4 4 2 2 4 3 3 5 6 7 9 10 12 13 10 10 13 11 10 9 11 9 9
21 17 16 8 3 3 6 5 3 5 5 3 5 7 6 7 5 5 7 7 7 5 7 7 11 11 8 7 6 4 4 3 4 4 3 3 2 2 3 6 6 7 6 7 7 8 10 10 10 10 11 8 9 12
15 2 5 3 2 4 5 5 5 4 5 5 6 5 5 4 7 7 7 6 8 6 9 9 10 11 11 9 6 4 6 5 4 4 3 2 2 2 3 3 6 6 6 6 6 6 5 8 8 8 10 9 8 9
5 4 3 3 4 4 6 6 6 4 5 6 6 7 7 8 10 9 5 7 6 10 10 9 9 9 9 10 9 10 8 9 7 4 2 4 5 1 1 3 5 5 6 6 7 6 7 8 9 9 8 7 7 7
10 5 4 4 6 6 7 6 7 6 6 4 3 5 4 4 2 2 4 5 5 4 5 6 6 9 10 9 8 8 10 10 7 6 5 3 2 1 2 2 3 4 6 6 6 6 6 6 9 7 6 8 9 8
4 4 4 5 7 6 4 5 3 4 5 8 6 7 6 4 3 4 5 6 6 3 4 6 5 6 7 8 8 8 10 9 7 5 5 5 4 3 2 2 2 3 5 6 5 5 5 7 7 7 7 6 8 9
6 6 5 8 5 5 6 6 8 8 9 10 12 11 4 3 4 5 5 3 4 4 5 5 5 5 6 6 6 5 9 9 8 7 6 4 3 4 2 2 2 3 4 5 6 6 6 7 6 7 8 9 10 10
7 7 9 5 3 7 7 8 8 14 14 14 6 4 1 4 6 6 3 2 3 5 5 5 6 5 5 6 5 6 8 8 8 8 7 5 3 1 1 1 1 6 4 5 5 6 7 7 7 8 8 9 9 10
8 9 8 7 5 5 5 6 8 5 6 6 4 6 3 5 6 2 4 3 3 4 5 5 6 6 6 6 4 3 7 8 9 7 8 6 5 3 2 3 4 5 4 5 6 7 7 7 7 6 6 7 8 9
10 9 16 12 9 6 12 12 9 5 5 4 2 4 4 5 2 3 3 3 4 5 6 6 4 5 6 4 5 7 9 8 9 10 8 7 5 4 5 6 7 4 6 7 5 5 5 6 6 7 7 6 6 7
9 8 10 15 15 10 10 11 12 8 7 8 7 8 8 4 4 4 5 6 7 7 6 7 5 3 1 2 2 7 8 9 12 14 14 8 8 6 5 6 7 5 5 7 9 8 8 7 7 6 6 6 5 6
13 10 15 17 19 20 16 13 13 11 10 11 11 11 9 7 4 6 6 6 6 7 7 7 6 5 4 4 5 3 2 2 3 5 8 8 6 7 6 6 5 5 4 4 5 6 4 4 5 4 5 5 5 5
9 8 10 14 16 14 13 11 12 13 12 11 13 12 12 8 3 6 7 7 7 7 8 7 3 2 2 3 5 7 6 3 5 6 6 7 7 6 5 5 4 4 4 3 3 4 5 5 5 6 6 7 7 6
8 11 11 15 13 11 9 9 9 10 6 7 12 11 10 5 4 3 6 6 6 5 6 7 4 5 5 4 5 7 9 7 6 7 9 6 5 4 3 3 3 3 5 6 6 6 5 6 5 6 6 7 8 8
9 10 11 10 6 8 9 9 4 6 9 9 9 8 4 2 5 4 3 5 5 5 4 4 5 6 9 10 9 8 9 10 11 10 9 9 7 4 4 4 4 5 7 6 6 6 6 7 6 7 7 8 8 8
Wind_Direction
314 316 317 319 321 321 321 323 323 325 327 329 330 331 331 325 319 295 278 179 215 255 283 280 287 286 272 259 270 325 303 106 298 288 308 354 344 327 294 96 175 177 193 181 233 250 171 3 58 332 18 347 342 340
312 314 315 315 315 319 320 321 321 322 324 323 325 326 327 322 313 299 264 169 211 241 273 307 282 267 260 260 263 274 300 315 288 293 322 305 293 280 299 198 180 236 27 332 310 37 66 15 54 42 1 343 352 336
309 311 311 311 312 314 318 320 321 321 321 322 320 323 320 319 303 273 268 179 196 263 282 257 7 209 226 239 277 254 233 282 237 301 314 290 301 332 327 28 306 170 21 305 286 68 17 103 29 15 357 340 341 340
304 307 308 310 313 313 315 319 320 320 320 319 318 317 319 316 296 253 227 214 234 293 289 337 172 299 223 184 190 205 251 296 301 292 292 268 270 198 306 287 300 333 321 303 293 30 50 162 1 351 338 337 334 339
297 303 306 312 314 316 316 318 320 320 319 319 321 319 319 312 279 234 232 234 216 268 315 315 306 217 259 217 217 204 220 234 257 263 264 259 321 312 235 201 354 248 346 346 330 329 328 334 323 332 326 338 327 338
293 295 302 309 309 316 317 320 319 319 317 319 324 321 316 302 190 190 205 177 205 177 274 288 348 266 332 338 55 176 216 217 264 266 271 277 273 332 309 283 86 11 349 332 314 315 303 296 290 314 324 324 319 322
295 296 298 304 306 309 318 320 322 319 317 319 324 321 309 219 191 274 13 63 138 162 237 277 273 124 322 273 128 168 217 268 283 309 260 336 351 319 278 341 2 343 322 311 306 306 299 334 319 319 308 308 307 312
297 297 297 299 303 308 315 318 323 320 317 320 327 324 78 137 259 199 103 143 156 230 217 285 288 282 28 344 25 239 192 216 236 312 15 336 311 310 340 339 324 318 318 306 305 325 305 299 292 297 300 308 309 311
301 300 298 296 297 306 313 315 322 320 318 320 323 197 217 225 205 52 158 159 226 297 288 248 298 301 340 23 265 229 273 254 148 287 216 280 324 337 289 304 293 296 287 289 289 286 288 286 286 289 288 303 310 316
306 306 302 299 299 304 312 318 322 322 316 312 261 232 200 57 343 151 196 176 196 200 225 252 329 284 318 318 272 281 211 263 260 95 238 247 231 255 308 319 325 318 307 295 272 286 290 293 296 296 293 297 296 302
314 315 313 309 308 307 312 320 324 319 292 341 335 319 347 313 215 209 198 219 159 217 206 229 271 302 101 292 313 20 302 16 263 79 341 305 353 353 350 349 344 312 307 295 302 275 272 282 294 291 285 292 295 296
316 314 311 311 308 305 310 321 320 314 328 313 298 310 299 252 210 232 201 162 218 265 166 243 2 232 116 241 266 279 284 258 339 30 249 343 8 354 348 340 334 323 313 318 312 298 267 256 277 282 281 286 290 295
316 310 310 310 306 306 311 314 312 317 295 242 190 233 229 205 227 217 201 180 212 186 167 236 296 123 175 231 254 288 271 275 312 267 346 323 350 354 351 344 339 345 346 334 328 329 261 273 287 274 278 279 284 298
317 319 311 306 300 311 322 315 327 328 278 264 262 266 231 204 231 208 202 216 106 248 265 306 288 225 189 216 220 257 257 286 261 292 265 359 346 349 349 349 348 350 353 349 353 28 13 332 331 318 312 315 304 303
317 319 311 303 338 309 318 323 317 266 259 252 207 242 230 243 252 229 232 220 196 245 248 228 188 232 179 249 198 264 232 235 230 256 309 341 354 344 344 350 350 357 359 5 360 21 26 11 359 347 354 335 330 327
321 308 295 330 302 307 311 318 287 214 239 238 236 255 232 254 248 216 226 238 186 199 196 243 241 217 191 226 209 220 244 232 218 223 285 329 344 352 347 341 354 357 355 23 18 10 19 20 14 3 3 9 349 344
313 253 346 327 311 303 298 266 221 224 237 226 238 232 263 272 277 284 263 246 151 211 249 222 241 240 114 228 229 210 218 220 233 268 302 329 318 346 344 343 348 354 4 13 20 24 25 18 22 14 5 357 350 348
293 299 313 313 318 298 262 230 245 242 245 238 245 245 215 256 272 263 238 219 213 228 228 235 226 212 215 198 211 212 224 246 259 279 323 324 304 332 349 351 351 357 359 8 23 22 25 36 28 17 9 6 3 2
311 309 301 302 303 302 277 229 238 262 243 264 260 263 256 258 252 258 267 235 230 256 234 208 241 233 225 222 251 279 198 226 255 236 293 276 276 338 333 348 360 6 6 4 13 8 11 20 31 32 19 358 7 10
302 302 289 298 240 235 257 239 223 260 265 293 265 256 241 258 275 251 242 217 205 208 212 223 235 245 243 229 252 265 278 208 226 255 211 150 215 251 356 338 3 338 359 16 20 17 2 12 21 15 22 27 8 357
300 348 319 238 222 233 274 275 245 248 284 262 288 272 269 230 246 238 231 209 212 231 236 236 246 248 245 251 262 236 219 214 221 259 309 252 58 307 325 345 334 343 350 4 15 13 359 24 5 1 15 34 23 11
265 332 287 213 248 228 250 239 255 326 258 266 272 252 268 266 263 254 224 213 237 237 249 254 255 245 244 230 222 222 225 191 208 159 198 192 242 274 7 2 335 340 344 12 355 359 7 25 15 34 33 356 32 15
253 231 233 237 232 227 254 211 233 218 246 237 228 246 225 224 236 135 225 226 253 273 279 281 263 257 252 254 209 207 210 196 196 205 167 211 190 181 276 302 347 349 342 359 345 352 9 20 40 24 30 23 25 27
265 230 234 235 214 248 236 223 218 255 235 232 240 250 255 241 153 237 244 260 274 343 288 278 267 250 221 235 229 213 193 202 194 175 168 183 208 120 352 12 3 21 354 327 1 355 10 42 53 26 32 21 8 16
237 207 228 236 235 232 226 225 218 224 237 240 250 255 249 199 234 234 233 248 24 20 4 329 282 269 248 214 202 194 165 194 176 177 166 193 151 178 169 162 96 34 354 346 8 14 29 48 43 39 32 19 15 18
244 217 209 221 229 222 222 232 229 238 240 243 244 241 238 228 234 238 182 57 31 17 358 336 326 309 270 257 253 182 183 207 167 176 152 170 154 121 60 23 61 90 16 10 19 32 50 57 40 35 29 22 25 11
238 224 210 227 244 278 267 255 268 269 259 238 220 200 200 223 232 138 129 89 51 25 351 347 333 309 291 281 234 186 161 179 183 165 140 127 110 79 78 91 86 74 58 44 49 49 48 54 56 44 40 41 27 21
230 247 237 227 225 234 262 269 282 264 240 199 235 223 215 197 233 82 72 47 353 324 329 327 348 340 309 269 190 169 149 126 118 118 117 112 122 134 121 107 92 29 67 36 20 48 48 51 68 69 63 55 40 37
227 232 248 245 250 249 239 244 249 251 267 274 264 278 288 328 332 308 331 348 325 315 317 329 337 338 336 345 160 155 156 164 166 173 179 169 168 165 166 145 155 145 110 96 49 42 47 49 52 63 59 49 53 60
230 224 239 242 246 247 247 256 263 272 282 290 299 294 285 279 343 12 345 331 324 318 318 304 303 286 253 198 141 104 106 174 271 230 210 196 174 141 154 157 161 162 156 150 133 126 172 169 149 94 72 65 52 45
241 207 221 235 248 255 262 259 254 259 260 271 269 262 261 287 62 51 22 337 322 317 299 288 245 11 316 226 170 164 141 90 85 67 50 81 123 133 134 136 147 151 146 141 135 133 127 93 77 73 72 77 74 60
238 235 232 238 245 249 257 263 259 262 260 237 242 253 264 247 210 68 10 347 356 358 351 348 24 63 61 67 73 65 76 102 100 98 96 100 103 109 138 146 143 128 136 130 124 122 116 113 116 107 89 80 76 73
228 234 240 248 253 265 249 234 260 254 239 230 246 221 196 150 84 34 11 1 357 3 33 38 48 53 60 60 68 71 68 74 63 42 38 39 35 50 93 97 114 133 133 124 120 120 118 117 111 107 101 96 88 80